Aviation Digital Data Service (ADDS)

Output produced by METARs form (1827 UTC 16 August 2018)
found at http://www.aviationweather.gov/adds/metars/
 
WAAA 161800Z VRB01KT 8000 FEW020 22/20 Q1009 NOSIG
TAF WAAA 161700Z 1618/1724 14005KT 8000 FEW019 
     BECMG 1622/1624 9999 
     BECMG 1703/1705 30010KT 
     BECMG 1710/1712 09005KT 8000
       
WABB 161700Z 00000KT 9999 FEW018 26/25 Q1007 NOSIG
TAF WABB 161700Z 1618/1800 00000KT 9999 SCT018 
     BECMG 1622/1700 26008KT
       
WADD 161800Z 11011KT 9999 FEW017 24/21 Q1010 NOSIG
TAF WADD 161700Z 1618/1718 11012KT 9999 SCT016
       
WADL 161800Z AUTO 03003KT 7000 NCD 20/19 Q1011
TAF WADL 161700Z 1618/1718 15010KT 7000 BKN016
       
WAHQ 161400Z 24006KT 7000 NSC 24/17 Q1012 NOSIG
WAHS 161600Z 13003KT 7000 FEW014 26/20 Q1010 NOSIG
WAJJ 161700Z 00000KT 9999 FEW013 25/23 Q1007 NOSIG
WALL 161800Z 22004KT 9000 SCT020 27/24 Q1008
TAF WALL 161700Z 1618/1724 22005KT 9000 SCT018 
     PROB30 
     TEMPO 1700/1703 6000 -RA BKN016 
     BECMG 1704/1705 9999
       
WAMM 161800Z 10001KT 9999 FEW022 23/22 Q1007 NOSIG
TAF WAMM 161700Z 1618/1724 10005KT 9999 FEW022 
     BECMG 1623/1701 30008KT
       
WAOO 161500Z 18002KT 9999 FEW020 25/21 Q1009
TAF WAOO 161700Z 1618/1718 00000KT 8000 FEW020 
     BECMG 1700/1702 18006KT 9999 SCT018
       
WAPP 161800Z 35004KT 9999 SCT018 24/22 Q1009 NOSIG
TAF WAPP 161700Z 1618/1718 35005KT 9999 SCT018 
     BECMG 1623/1701 14009KT
       
WAQQ 161600Z 10002KT 8000 SCT015 28/27 Q1007
TAF WAQQ 161700Z 1618/1706 10002KT 8000 SCT015 
     BECMG 1617/1619 00000KT 
     TEMPO 1621/1624 5000 -RA FEW012CB BKN012
       
WARR 161700Z VRB01KT 6000 FEW020 23/17 Q1010 NOSIG
TAF WARR 161700Z 1618/1718 26005KT 6000 FEW020 
     TEMPO 1621/1700 4000 HZ 
     BECMG 1700/1702 15008KT 9999 NSW 
     BECMG 1704/1706 10014KT 
     BECMG 1715/1717 26005KT
       
WATT 161500Z 11009KT 8000 FEW018 24/19 Q1012 NOSIG
TAF WATT 161700Z 1618/1718 10006KT 8000 FEW018 
     TEMPO 1701/1705 12010G20KT
       
WIBB 161800Z 00000KT 6000 FEW016 27/25 Q1006
WIDD 161800Z 14004KT 9999 FEW014 28/24 Q1010 NOSIG
TAF WIDD 161100Z 1612/1712 15008KT 9000 FEW014 
     PROB30 
     TEMPO 1622/1624 6000 -TSRA FEW014CB
       
WIEE 161700Z 04003KT 9999 SCT020 26/24 Q1009
TAF WIEE 161700Z 1618/1718 04003 8000 SCT020 
     BECMG 1700/1703 26006KT 9999 FEW020
       
TAF WIHH 161700Z 1618/1718 20005KT 5000 HZ SCT018 
     BECMG 1700/1702 14005KT
       
WIII 161800Z 22005KT 3000 HZ FEW021 26/22 Q1009 NOSIG
TAF WIII 161700Z 1618/1724 20005KT 4000 HZ SCT020 
     BECMG 1700/1702 05010KT 9000 NSW
       
WIMM 161800Z 00000KT 5000 HZ FEW017CB BKN018 26/24 Q1008 NOSIG
TAF WIMM 161700Z 1618/1718 VRB03KT 4500 HZ SCT018 
     BECMG 1702/1704 02010KT 9999 NSW 
     BECMG 1714/1716 VRB03KT 4500 HZ
       
WIOO 161500Z 16007KT 2000 FU SCT012 27/24 Q1009
WIPP 161630Z 14008KT 9999 FEW100 26/24 Q1009 NOSIG
TAF WIPP 161700Z 1618/1718 14010KT 9999 SCT012 
     TEMPO 1622/1701 3000 BR FEW012
       
TAF WITT 161700Z 1618/1718 22005KT 9999 SCT018 
     BECMG 1621/1623 15005KT 
     TEMPO 1710/1714 20010KT 5000 RA FEW015CB SCT017
       
WAAA 161800Z VRB01KT 8000 FEW020 22/20 Q1009 NOSIG
TAF WAAA 161700Z 1618/1724 14005KT 8000 FEW019 
     BECMG 1622/1624 9999 
     BECMG 1703/1705 30010KT 
     BECMG 1710/1712 09005KT 8000
       
WABB 161700Z 00000KT 9999 FEW018 26/25 Q1007 NOSIG
TAF WABB 161700Z 1618/1800 00000KT 9999 SCT018 
     BECMG 1622/1700 26008KT
       
WADD 161800Z 11011KT 9999 FEW017 24/21 Q1010 NOSIG
TAF WADD 161700Z 1618/1718 11012KT 9999 SCT016
       
WADL 161800Z AUTO 03003KT 7000 NCD 20/19 Q1011
TAF WADL 161700Z 1618/1718 15010KT 7000 BKN016
       
WAHQ 161400Z 24006KT 7000 NSC 24/17 Q1012 NOSIG
WAHS 161600Z 13003KT 7000 FEW014 26/20 Q1010 NOSIG
WAJJ 161700Z 00000KT 9999 FEW013 25/23 Q1007 NOSIG
WALL 161800Z 22004KT 9000 SCT020 27/24 Q1008
TAF WALL 161700Z 1618/1724 22005KT 9000 SCT018 
     PROB30 
     TEMPO 1700/1703 6000 -RA BKN016 
     BECMG 1704/1705 9999
       
WAMM 161800Z 10001KT 9999 FEW022 23/22 Q1007 NOSIG
TAF WAMM 161700Z 1618/1724 10005KT 9999 FEW022 
     BECMG 1623/1701 30008KT
       
WAOO 161500Z 18002KT 9999 FEW020 25/21 Q1009
TAF WAOO 161700Z 1618/1718 00000KT 8000 FEW020 
     BECMG 1700/1702 18006KT 9999 SCT018
       
WAPP 161800Z 35004KT 9999 SCT018 24/22 Q1009 NOSIG
TAF WAPP 161700Z 1618/1718 35005KT 9999 SCT018 
     BECMG 1623/1701 14009KT
       
WAQQ 161600Z 10002KT 8000 SCT015 28/27 Q1007
TAF WAQQ 161700Z 1618/1706 10002KT 8000 SCT015 
     BECMG 1617/1619 00000KT 
     TEMPO 1621/1624 5000 -RA FEW012CB BKN012
       
WARR 161700Z VRB01KT 6000 FEW020 23/17 Q1010 NOSIG
TAF WARR 161700Z 1618/1718 26005KT 6000 FEW020 
     TEMPO 1621/1700 4000 HZ 
     BECMG 1700/1702 15008KT 9999 NSW 
     BECMG 1704/1706 10014KT 
     BECMG 1715/1717 26005KT
       
WATT 161500Z 11009KT 8000 FEW018 24/19 Q1012 NOSIG
TAF WATT 161700Z 1618/1718 10006KT 8000 FEW018 
     TEMPO 1701/1705 12010G20KT
       
WABB 161700Z 00000KT 9999 FEW018 26/25 Q1007 NOSIG
TAF WABB 161700Z 1618/1800 00000KT 9999 SCT018 
     BECMG 1622/1700 26008KT
       
WAAA 161800Z VRB01KT 8000 FEW020 22/20 Q1009 NOSIG
TAF WAAA 161700Z 1618/1724 14005KT 8000 FEW019 
     BECMG 1622/1624 9999 
     BECMG 1703/1705 30010KT 
     BECMG 1710/1712 09005KT 8000
       
WAAA 161800Z VRB01KT 8000 FEW020 22/20 Q1009 NOSIG
TAF WAAA 161700Z 1618/1724 14005KT 8000 FEW019 
     BECMG 1622/1624 9999 
     BECMG 1703/1705 30010KT 
     BECMG 1710/1712 09005KT 8000
       
WABB 161700Z 00000KT 9999 FEW018 26/25 Q1007 NOSIG
TAF WABB 161700Z 1618/1800 00000KT 9999 SCT018 
     BECMG 1622/1700 26008KT
       
WADD 161800Z 11011KT 9999 FEW017 24/21 Q1010 NOSIG
TAF WADD 161700Z 1618/1718 11012KT 9999 SCT016
       
WADL 161800Z AUTO 03003KT 7000 NCD 20/19 Q1011
TAF WADL 161700Z 1618/1718 15010KT 7000 BKN016
       
WAHQ 161400Z 24006KT 7000 NSC 24/17 Q1012 NOSIG
WAHS 161600Z 13003KT 7000 FEW014 26/20 Q1010 NOSIG
WAJJ 161700Z 00000KT 9999 FEW013 25/23 Q1007 NOSIG
WALL 161800Z 22004KT 9000 SCT020 27/24 Q1008
TAF WALL 161700Z 1618/1724 22005KT 9000 SCT018 
     PROB30 
     TEMPO 1700/1703 6000 -RA BKN016 
     BECMG 1704/1705 9999
       
WAMM 161800Z 10001KT 9999 FEW022 23/22 Q1007 NOSIG
TAF WAMM 161700Z 1618/1724 10005KT 9999 FEW022 
     BECMG 1623/1701 30008KT
       
WAOO 161500Z 18002KT 9999 FEW020 25/21 Q1009
TAF WAOO 161700Z 1618/1718 00000KT 8000 FEW020 
     BECMG 1700/1702 18006KT 9999 SCT018
       
WAPP 161800Z 35004KT 9999 SCT018 24/22 Q1009 NOSIG
TAF WAPP 161700Z 1618/1718 35005KT 9999 SCT018 
     BECMG 1623/1701 14009KT
       
WAQQ 161600Z 10002KT 8000 SCT015 28/27 Q1007
TAF WAQQ 161700Z 1618/1706 10002KT 8000 SCT015 
     BECMG 1617/1619 00000KT 
     TEMPO 1621/1624 5000 -RA FEW012CB BKN012
       
WARR 161700Z VRB01KT 6000 FEW020 23/17 Q1010 NOSIG
TAF WARR 161700Z 1618/1718 26005KT 6000 FEW020 
     TEMPO 1621/1700 4000 HZ 
     BECMG 1700/1702 15008KT 9999 NSW 
     BECMG 1704/1706 10014KT 
     BECMG 1715/1717 26005KT
       
WATT 161500Z 11009KT 8000 FEW018 24/19 Q1012 NOSIG
TAF WATT 161700Z 1618/1718 10006KT 8000 FEW018 
     TEMPO 1701/1705 12010G20KT
       
WIBB 161800Z 00000KT 6000 FEW016 27/25 Q1006
WIDD 161800Z 14004KT 9999 FEW014 28/24 Q1010 NOSIG
TAF WIDD 161100Z 1612/1712 15008KT 9000 FEW014 
     PROB30 
     TEMPO 1622/1624 6000 -TSRA FEW014CB
       
WIEE 161700Z 04003KT 9999 SCT020 26/24 Q1009
TAF WIEE 161700Z 1618/1718 04003 8000 SCT020 
     BECMG 1700/1703 26006KT 9999 FEW020
       
TAF WIHH 161700Z 1618/1718 20005KT 5000 HZ SCT018 
     BECMG 1700/1702 14005KT
       
WIII 161800Z 22005KT 3000 HZ FEW021 26/22 Q1009 NOSIG
TAF WIII 161700Z 1618/1724 20005KT 4000 HZ SCT020 
     BECMG 1700/1702 05010KT 9000 NSW
       
WIMM 161800Z 00000KT 5000 HZ FEW017CB BKN018 26/24 Q1008 NOSIG
TAF WIMM 161700Z 1618/1718 VRB03KT 4500 HZ SCT018 
     BECMG 1702/1704 02010KT 9999 NSW 
     BECMG 1714/1716 VRB03KT 4500 HZ
       
WIOO 161500Z 16007KT 2000 FU SCT012 27/24 Q1009
WIPP 161630Z 14008KT 9999 FEW100 26/24 Q1009 NOSIG
TAF WIPP 161700Z 1618/1718 14010KT 9999 SCT012 
     TEMPO 1622/1701 3000 BR FEW012
       
TAF WITT 161700Z 1618/1718 22005KT 9999 SCT018 
     BECMG 1621/1623 15005KT 
     TEMPO 1710/1714 20010KT 5000 RA FEW015CB SCT017
       
WAPP 161800Z 35004KT 9999 SCT018 24/22 Q1009 NOSIG
TAF WAPP 161700Z 1618/1718 35005KT 9999 SCT018 
     BECMG 1623/1701 14009KT
       
WIMM 161800Z 00000KT 5000 HZ FEW017CB BKN018 26/24 Q1008 NOSIG
TAF WIMM 161700Z 1618/1718 VRB03KT 4500 HZ SCT018 
     BECMG 1702/1704 02010KT 9999 NSW 
     BECMG 1714/1716 VRB03KT 4500 HZ
       
WIBB 161800Z 00000KT 6000 FEW016 27/25 Q1006
WIDD 161800Z 14004KT 9999 FEW014 28/24 Q1010 NOSIG
TAF WIDD 161100Z 1612/1712 15008KT 9000 FEW014 
     PROB30 
     TEMPO 1622/1624 6000 -TSRA FEW014CB
       
WIEE 161700Z 04003KT 9999 SCT020 26/24 Q1009
TAF WIEE 161700Z 1618/1718 04003 8000 SCT020 
     BECMG 1700/1703 26006KT 9999 FEW020
       
TAF WIHH 161700Z 1618/1718 20005KT 5000 HZ SCT018 
     BECMG 1700/1702 14005KT
       
WIII 161800Z 22005KT 3000 HZ FEW021 26/22 Q1009 NOSIG
TAF WIII 161700Z 1618/1724 20005KT 4000 HZ SCT020 
     BECMG 1700/1702 05010KT 9000 NSW
       
WIMM 161800Z 00000KT 5000 HZ FEW017CB BKN018 26/24 Q1008 NOSIG
TAF WIMM 161700Z 1618/1718 VRB03KT 4500 HZ SCT018 
     BECMG 1702/1704 02010KT 9999 NSW 
     BECMG 1714/1716 VRB03KT 4500 HZ
       
WIOO 161500Z 16007KT 2000 FU SCT012 27/24 Q1009
WIPP 161630Z 14008KT 9999 FEW100 26/24 Q1009 NOSIG
TAF WIPP 161700Z 1618/1718 14010KT 9999 SCT012 
     TEMPO 1622/1701 3000 BR FEW012
       
TAF WITT 161700Z 1618/1718 22005KT 9999 SCT018 
     BECMG 1621/1623 15005KT 
     TEMPO 1710/1714 20010KT 5000 RA FEW015CB SCT017
       
WAMM 161800Z 10001KT 9999 FEW022 23/22 Q1007 NOSIG
TAF WAMM 161700Z 1618/1724 10005KT 9999 FEW022 
     BECMG 1623/1701 30008KT
       
WAJJ 161700Z 00000KT 9999 FEW013 25/23 Q1007 NOSIG
WIII 161800Z 22005KT 3000 HZ FEW021 26/22 Q1009 NOSIG
TAF WIII 161700Z 1618/1724 20005KT 4000 HZ SCT020 
     BECMG 1700/1702 05010KT 9000 NSW
       
TAF WITT 161700Z 1618/1718 22005KT 9999 SCT018 
     BECMG 1621/1623 15005KT 
     TEMPO 1710/1714 20010KT 5000 RA FEW015CB SCT017
       
WIPP 161630Z 14008KT 9999 FEW100 26/24 Q1009 NOSIG
TAF WIPP 161700Z 1618/1718 14010KT 9999 SCT012 
     TEMPO 1622/1701 3000 BR FEW012
       
WIBB 161800Z 00000KT 6000 FEW016 27/25 Q1006
WIOO 161500Z 16007KT 2000 FU SCT012 27/24 Q1009